(545746) = 2003 FO120 = 2011 SO297

Discovered at Kitt Peak on 2003-03-24 by Spacewatch.

Orbit

Orbit type: Main Belt

Note: WebGL enabled browser required.

epoch2023-09-13.0
epoch JD2460200.5
perihelion date2020-05-23.43675
perihelion JD2458992.93675
argument of perihelion (°)190.94164
ascending node (°)352.43160
inclination (°)18.47412
eccentricity0.1228807
perihelion distance (AU)2.7999291
Tisserand w.r.t. Jupiter3.1
ΔV w.r.t. Earth (km/sec)11.9
semimajor axis (AU)3.1921872
mean anomaly (°)208.68018
mean daily motion (°/day)0.17281100
aphelion distance (AU)3.584
period (years)5.7
P-vector [x]-0.99697911
P-vector [y]-0.02116395
P-vector [z]-0.07473115
Q-vector [x]0.06550414
Q-vector [y]-0.74612091
Q-vector [z]-0.66258041
absolute magnitude16.02
phase slope0.15
uncertainty0
referenceMPEC 2023-X165
observations used212
oppositions10
arc length (days)7564
first opposition used2003
last opposition used2023
residual rms (arc-secs)0.75
perturbers coarse indicatorM-v
perturbers precise indicator003Ek
first observation date used2003-03-24.0
last observation date used2023-12-08.0
computer nameMPCLINUX
Minimum Orbit Intersection Distances (in AU)
for orbit epoch: 2460200.5, reference: E2023-W14
Mercury2.39891
Venus2.08511
Earth1.80418
Mars1.14748
Jupiter1.39265
Saturn5.8931
Uranus15.6278
Neptune26.3065

Observations

217 total observations over interval: 2003 03 24.12138 – 2023 12 08.355122
These data are available for download (format description).

Date (UT) J2000 RA J2000 Dec Magn Location Ref
2003 03 24.12138 10 41 39.42 +11 45 38.0 20.2 V 691 – Steward Observatory, Kitt Peak-Spacewatch MPS 76456
2003 03 24.14769 10 41 38.08 +11 45 33.6 20.4 V 691 – Steward Observatory, Kitt Peak-Spacewatch MPS 76456
2003 03 24.17455 10 41 36.72 +11 45 29.1 20.0 V 691 – Steward Observatory, Kitt Peak-Spacewatch MPS 76456
2003 03 25.26224 10 40 43.23 +11 42 19.3 19.8 R 699 – Lowell Observatory-LONEOS MPS 76456
2003 03 25.27716 10 40 42.57 +11 42 17.4   699 – Lowell Observatory-LONEOS MPS 76456
2003 03 25.29212 10 40 41.75 +11 42 14.9   699 – Lowell Observatory-LONEOS MPS 76456
2003 03 25.30707 10 40 41.11 +11 42 12.2   699 – Lowell Observatory-LONEOS MPS 76456
2003 04 05.14631 10 33 14.72 +11 04 06.2 20.9 V 691 – Steward Observatory, Kitt Peak-Spacewatch MPS 78423
2003 04 05.17409 10 33 13.75 +11 03 59.1 20.7 V 691 – Steward Observatory, Kitt Peak-Spacewatch MPS 78423
2003 04 05.20322 10 33 12.72 +11 03 52.1 20.8 V 691 – Steward Observatory, Kitt Peak-Spacewatch MPS 78423
2009 04 18.27132 12 35 55.35 -18 45 10.8 19.5 V 703 – Catalina Sky Survey MPS 1591868
2009 04 18.27674 12 35 54.99 -18 45 13.3 19.7 V 703 – Catalina Sky Survey MPS 1591868
2009 04 18.28215 12 35 54.70 -18 45 12.8 20.6 V 703 – Catalina Sky Survey MPS 1591868
2009 04 18.28756 12 35 54.42 -18 45 12.8 19.7 V 703 – Catalina Sky Survey MPS 1591868
2011 09 18.27344 23 33 18.82 -02 35 47.9 21.1 V G96 – Mt. Lemmon Survey MPS 1108924
2011 09 18.28037 23 33 18.46 -02 35 48.5 20.5 V G96 – Mt. Lemmon Survey MPS 1108924
2011 09 18.28735 23 33 18.10 -02 35 49.2 20.5 V G96 – Mt. Lemmon Survey MPS 1108924
2011 09 18.29431 23 33 17.74 -02 35 49.7 20.4 V G96 – Mt. Lemmon Survey MPS 1108924
2011 09 21.36722 23 30 44.597 -02 40 18.32 21.3 w F51 – Pan-STARRS 1, Haleakala MPS 1108924
2011 09 21.38129 23 30 43.882 -02 40 19.63 21.2 w F51 – Pan-STARRS 1, Haleakala MPS 1108924
2011 09 21.39533 23 30 43.172 -02 40 20.95 21.4 w F51 – Pan-STARRS 1, Haleakala MPS 1108924
2011 09 21.40938 23 30 42.450 -02 40 22.20 21.4 w F51 – Pan-STARRS 1, Haleakala MPS 1108924
2011 10 18.19262 23 11 48.76 -03 04 22.2 21.0 V G96 – Mt. Lemmon Survey MPS 1108924
2011 10 18.19882 23 11 48.55 -03 04 22.9 21.5 V G96 – Mt. Lemmon Survey MPS 1108924
2011 10 18.20498 23 11 48.33 -03 04 23.3 21.6 V G96 – Mt. Lemmon Survey MPS 1108924
2011 10 18.21118 23 11 48.12 -03 04 23.0 21.1 V G96 – Mt. Lemmon Survey MPS 1108924
2014 02 22.25159 09 03 02.62 +33 48 59.7 19.9 V 703 – Catalina Sky Survey MPS 1108924
2014 02 22.25789 09 03 02.31 +33 48 56.4 19.8 V 703 – Catalina Sky Survey MPS 1108924
2014 02 22.26421 09 03 02.03 +33 48 55.0 20.1 V 703 – Catalina Sky Survey MPS 1108924
2014 02 22.27055 09 03 01.70 +33 48 54.8 19.4 V 703 – Catalina Sky Survey MPS 1108924
2014 03 02.24370 08 56 07.926 +33 10 35.47 20.5 w F51 – Pan-STARRS 1, Haleakala MPS 1108924
2014 03 02.25518 08 56 07.373 +33 10 31.76 20.5 w F51 – Pan-STARRS 1, Haleakala MPS 1108924
2014 03 02.26664 08 56 06.818 +33 10 28.04 20.3 w F51 – Pan-STARRS 1, Haleakala MPS 1108924
2014 03 02.27810 08 56 06.263 +33 10 24.40 20.5 w F51 – Pan-STARRS 1, Haleakala MPS 1108924
2015 05 27.16287 14 35 13.17 -41 26 03.3 20.5 i W84 – Cerro Tololo-DECam MPS 1224988
2015 05 27.16551 14 35 13.03 -41 26 02.7   W84 – Cerro Tololo-DECam MPS 1224988
2015 05 27.16816 14 35 12.88 -41 26 02.1   W84 – Cerro Tololo-DECam MPS 1224988
2016 07 05.48717 21 56 33.576 -30 50 36.53 21.4 w F51 – Pan-STARRS 1, Haleakala MPS 1108924
2016 07 05.49805 21 56 33.231 -30 50 38.34 21.2 w F51 – Pan-STARRS 1, Haleakala MPS 1108924
2016 07 05.50888 21 56 32.898 -30 50 40.38 21.3 w F51 – Pan-STARRS 1, Haleakala MPS 1108924
2016 07 05.51971 21 56 32.551 -30 50 42.49 21.4 w F51 – Pan-STARRS 1, Haleakala MPS 1108924
2016 08 07.43831 21 30 36.668 -32 04 29.52 20.9 w F51 – Pan-STARRS 1, Haleakala MPS 1108924
2016 08 07.45022 21 30 35.954 -32 04 29.98 20.9 w F51 – Pan-STARRS 1, Haleakala MPS 1108924
2016 08 07.46219 21 30 35.244 -32 04 30.60 20.9 w F51 – Pan-STARRS 1, Haleakala MPS 1108924
2016 08 07.47410 21 30 34.533 -32 04 31.15 21.1 w F51 – Pan-STARRS 1, Haleakala MPS 1108924
2016 08 09.42543 21 28 41.609 -32 05 36.57 21.0 w F51 – Pan-STARRS 1, Haleakala MPS 1108924
2016 08 09.44603 21 28 40.396 -32 05 37.20 20.8 w F51 – Pan-STARRS 1, Haleakala MPS 1108924
2016 08 09.45635 21 28 39.773 -32 05 37.36 20.7 w F51 – Pan-STARRS 1, Haleakala MPS 1108924
2017 09 02.42252 00 52 08.448 +12 26 41.53 21.2 i F51 – Pan-STARRS 1, Haleakala MPS 1108924
2017 09 02.43355 00 52 08.043 +12 26 42.84 21.1 i F51 – Pan-STARRS 1, Haleakala MPS 1108924
2017 09 02.45573 00 52 07.254 +12 26 44.89 21.1 i F51 – Pan-STARRS 1, Haleakala MPS 1108924
2017 10 15.24796 00 18 51.90 +11 54 12.4 20.8 G G96 – Mt. Lemmon Survey MPS 1108924
2017 10 15.25325 00 18 51.66 +11 54 12.5 21.0 G G96 – Mt. Lemmon Survey MPS 1108924
2017 10 15.25846 00 18 51.39 +11 54 11.1 20.4 G G96 – Mt. Lemmon Survey MPS 1108924
2017 10 15.26366 00 18 51.14 +11 54 11.7 19.6 G G96 – Mt. Lemmon Survey MPS 1108924
2017 10 23.21577 00 12 55.66 +11 36 14.7 21.2 G G96 – Mt. Lemmon Survey MPS 1108924
2017 10 23.22098 00 12 55.47 +11 36 14.5 20.9 G G96 – Mt. Lemmon Survey MPS 1108924
2017 10 23.22622 00 12 55.22 +11 36 13.8 21.2 G G96 – Mt. Lemmon Survey MPS 1108924
2017 10 23.23148 00 12 55.05 +11 36 12.7 21.4 G G96 – Mt. Lemmon Survey MPS 1108924
2019 12 29.56497 11 38 30.059 +11 27 17.77 21.1 w F51 – Pan-STARRS 1, Haleakala MPS 1108924
2019 12 29.57732 11 38 30.326 +11 27 14.88 21.0 w F51 – Pan-STARRS 1, Haleakala MPS 1108924
2019 12 29.58969 11 38 30.588 +11 27 11.55 21.0 w F51 – Pan-STARRS 1, Haleakala MPS 1108924
2020 01 26.45623 11 39 44.06 +10 02 03.6 20.4 G G96 – Mt. Lemmon Survey MPS 1123766
2020 01 26.46136 11 39 43.97 +10 02 03.3 20.5 G G96 – Mt. Lemmon Survey MPS 1123766
2020 01 26.47935 11 39 43.60 +10 02 01.4 20.2 G G96 – Mt. Lemmon Survey MPS 1123766
2020 01 26.48450 11 39 43.47 +10 02 01.0 20.2 G G96 – Mt. Lemmon Survey MPS 1123766
2020 01 28.374780 11 39 05.36 +09 58 47.4 20.77 g I41 – Palomar Mountain--ZTF MPS 1123766
2020 01 28.382260 11 39 05.22 +09 58 46.6 20.92 g I41 – Palomar Mountain--ZTF MPS 1123766
2020 01 28.417950 11 39 04.36 +09 58 43.2 20.29 i I41 – Palomar Mountain--ZTF MPS 1123766
2020 01 28.439060 11 39 03.87 +09 58 41.3 20.39 i I41 – Palomar Mountain--ZTF MPS 1123766
2020 02 01.50379 11 37 21.99 +09 52 43.2 20.4 G G96 – Mt. Lemmon Survey MPS 1123766
2020 02 01.51479 11 37 21.66 +09 52 42.3 20.4 G G96 – Mt. Lemmon Survey MPS 1123766
2020 02 01.51986 11 37 21.52 +09 52 42.0 20.4 G G96 – Mt. Lemmon Survey MPS 1123766
2020 02 01.52495 11 37 21.39 +09 52 41.5 20.1 G G96 – Mt. Lemmon Survey MPS 1123766
2020 02 15.44072 11 28 29.87 +09 39 46.4 20.2 G G96 – Mt. Lemmon Survey MPS 1148434
2020 02 15.44586 11 28 29.62 +09 39 46.1 20.0 G G96 – Mt. Lemmon Survey MPS 1148434
2020 02 15.45100 11 28 29.37 +09 39 46.2 20.0 G G96 – Mt. Lemmon Survey MPS 1148435
2020 02 15.45615 11 28 29.12 +09 39 45.8 20.1 G G96 – Mt. Lemmon Survey MPS 1148435
2020 02 16.381370 11 27 44.88 +09 39 11.4 20.28 g I41 – Palomar Mountain--ZTF MPS 1428110
2020 02 16.425740 11 27 42.66 +09 39 09.7 19.92 r I41 – Palomar Mountain--ZTF MPS 1428110
2020 02 17.271980 11 27 01.40 +09 38 39.3 20.01 r I41 – Palomar Mountain--ZTF MPS 1148435
2020 02 17.292650 11 27 00.37 +09 38 38.5 19.90 r I41 – Palomar Mountain--ZTF MPS 1148435
2020 02 19.319900 11 25 17.73 +09 37 29.6 20.06 r I41 – Palomar Mountain--ZTF MPS 1148435
2020 02 19.338170 11 25 16.77 +09 37 29.0 19.94 r I41 – Palomar Mountain--ZTF MPS 1428110
2020 02 20.295931 11 24 26.91 +09 36 57.6 19.93 r I41 – Palomar Mountain--ZTF MPS 1148435
2020 02 20.331690 11 24 24.96 +09 36 56.4 19.86 r I41 – Palomar Mountain--ZTF MPS 1148435
2020 02 20.335431 11 24 24.75 +09 36 56.2 19.85 r I41 – Palomar Mountain--ZTF MPS 1148435
2020 02 20.379470 11 24 22.36 +09 36 55.1 20.74 g I41 – Palomar Mountain--ZTF MPS 1148435
2020 02 20.380370 11 24 22.30 +09 36 54.7 20.55 g I41 – Palomar Mountain--ZTF MPS 1148435
2020 02 21.270190 11 23 35.22 +09 36 26.1 19.83 r I41 – Palomar Mountain--ZTF MPS 1148435
2020 02 21.354260 11 23 30.59 +09 36 23.5 20.36 g I41 – Palomar Mountain--ZTF MPS 1148435
2020 02 21.402650 11 23 27.92 +09 36 21.8 19.83 r I41 – Palomar Mountain--ZTF MPS 1148435
2020 02 26.64610 11 18 35.86 +09 33 30.9 19.8 R D29 – Purple Mountain Observatory, XuYi Station MPS 1148435
2020 02 26.66024 11 18 35.05 +09 33 31.1 19.9 R D29 – Purple Mountain Observatory, XuYi Station MPS 1148435
